This demonstration page uses our WeatherBlox Daily Observations layout. Learn more.

Left ArrowRight Arrow

Hourly Observations for November 24, 2016

Temp ( °F °C ) Dew Point ( °F °C ) Humidity (%) Winds ( mph kmh ) Pressure ( in mb ) Visibility ( mi km ) Precip ( " mm )
12:15 am 00:15 Cloudy with Mist and Fog 31 -0.5 30 -1 96 96 SE 13 20 30.21 1023 2 3 0.00 0.00
12:35 am 00:35 Cloudy with Mist and Fog 31 -0.5 30 -1 96 96 SE 12 19 30.21 1023 1 1 0.00 0.00
12:55 am 00:55 Cloudy with Mist and Fog 31 -0.4 30 -0.9 96 96 SSE 12 19 30.21 1023 1 2 0.00 0.00
1:15 am 01:15 Cloudy with Mist and Fog 31 -0.3 31 -0.7 97 97 SSE 13 20 30.21 1023 1 1 0.00 0.00
1:35 am 01:35 Cloudy with Freezing Fog 31 -0.3 31 -0.7 97 97 SE 13 20 30.21 1023 1 1 0.00 0.00
1:55 am 01:55 Cloudy with Freezing Fog 31 -0.5 31 -0.8 98 98 SE 12 19 30.18 1022 1 1 0.00 0.00
2:15 am 02:15 Cloudy with Freezing Fog 31 -0.5 30 -0.9 97 97 SSE 9 15 30.21 1023 0 0 0.00 0.00
2:35 am 02:35 Cloudy with Fog 32 -0.2 31 -0.6 97 97 SE 10 17 30.21 1023 0 0 0.00 0.00
2:55 am 02:55 Cloudy with Fog 32 0 31 -0.3 98 98 SE 9 15 30.18 1022 0 0 0.00 0.00
3:15 am 03:15 Cloudy with Fog 32 0 32 -0.1 99 99 SE 12 19 30.18 1022 0 0 0.00 0.00
3:35 am 03:35 Cloudy with Fog 32 0.1 32 -0.1 99 99 SE 8 13 30.18 1022 0 0 0.00 0.00
3:55 am 03:55 Cloudy with Fog 32 0.1 32 -0.1 99 99 SE 10 17 30.18 1022 0 0 0.00 0.00
4:15 am 04:15 Cloudy with Fog 32 0.1 32 -0.1 99 99 SE 9 15 30.18 1022 0 0 0.00 0.00
4:35 am 04:35 Cloudy with Fog 32 0.1 32 -0.1 99 99 SE 10 17 30.18 1022 0 0 0.00 0.00
4:55 am 04:55 Cloudy with Fog 32 0 32 -0.1 99 99 ESE 12 19 30.12 1020 0 0 0.00 0.00
5:15 am 05:15 Cloudy with Fog 32 0 32 -0.1 99 99 ESE 14 22 30.12 1020 0 0 0.00 0.00
5:35 am 05:35 Cloudy with Fog 32 0.1 32 -0.1 99 99 ESE 14 22 30.12 1020 0 0 0.00 0.00
5:55 am 05:55 Cloudy with Fog 32 0.1 32 -0.1 99 99 SE 18 30 30.12 1020 0 0 0.00 0.00
6:15 am 06:15 Cloudy with Fog 32 0.1 32 0 99 99 ESE 13 20 30.09 1019 0 0 0.00 0.00
6:35 am 06:35 Cloudy with Light Snow 33 0.3 32 0 98 98 ESE 13 20 30.09 1019 0 0 0.00 0.00
6:55 am 06:55 Cloudy with Fog 33 0.5 32 0 96 96 SE 9 15 30.12 1020 0 0 0.00 0.00
7:15 am 07:15 Cloudy with Fog 33 0.7 33 0.3 97 97 SE 8 13 30.12 1020 0 0 0.00 0.00
7:35 am 07:35 Cloudy with Fog 33 0.8 33 0.5 98 98 SE 10 17 30.12 1020 0 0 0.00 0.00
7:55 am 07:55 Cloudy with Fog 33 0.8 33 0.5 98 98 SE 9 15 30.12 1020 0 0 0.00 0.00
8:15 am 08:15 Cloudy with Fog 34 1 33 0.5 97 97 SE 9 15 30.12 1020 0 0 0.00 0.00
8:35 am 08:35 Cloudy with Fog 34 1.1 33 0.7 97 97 SE 9 15 30.15 1021 5 8 0.00 0.00
8:55 am 08:55 Cloudy with Fog 34 1.3 34 1 98 98 SSE 7 11 30.15 1021 5 8 0.00 0.00
9:15 am 09:15 Cloudy with Fog 35 1.5 34 1.1 97 97 SSE 7 11 30.15 1021 5 8 0.00 0.00
9:35 am 09:35 Cloudy with Fog 35 1.5 34 1.1 97 97 S 10 17 30.18 1022 1 1 0.00 0.00
9:55 am 09:55 Cloudy with Mist and Fog 35 1.5 34 1.1 97 97 S 7 11 30.18 1022 1 2 0.00 0.00
10:15 am 10:15 Cloudy with Mist and Fog 35 1.5 34 1.1 97 97 SSW 5 7 30.18 1022 2 3 0.00 0.00
10:35 am 10:35 Cloudy with Mist and Fog 35 1.6 34 1.2 97 97 SSW 3 6 30.18 1022 3 4 0.00 0.00
10:55 am 10:55 Cloudy with Mist and Fog 35 1.6 34 1.2 97 97 SW 3 6 30.18 1022 3 5 0.00 0.00
11:15 am 11:15 Cloudy with Mist and Fog 35 1.9 35 1.5 97 97 W 3 6 30.18 1022 4 6 0.00 0.00
11:35 am 11:35 Cloudy with Mist and Fog 36 2 35 1.6 97 97 W 6 9 30.18 1022 4 6 0.00 0.00
11:55 am 11:55 Cloudy 36 2 35 1.6 97 97 WNW 5 7 30.18 1022 7 11 0.00 0.00
12:15 pm 12:15 Cloudy 36 2.3 35 1.8 97 97 WNW 8 13 30.21 1023 10 16 0.00 0.00
12:35 pm 12:35 Cloudy 37 2.5 35 1.7 95 95 NW 7 11 30.21 1023 10 16 0.00 0.00
12:55 pm 12:55 Cloudy 36 2.4 34 1 91 91 NW 7 11 30.21 1023 10 16 0.00 0.00
1:15 pm 13:15 Cloudy 37 2.6 34 1 89 89 NW 7 11 30.21 1023 10 16 0.00 0.00
1:35 pm 13:35 Cloudy 37 2.5 34 1.1 91 91 NNW 9 15 30.21 1023 10 16 0.00 0.00
1:55 pm 13:55 Cloudy 37 2.6 34 1.1 90 90 NW 9 15 30.21 1023 10 16 0.00 0.00
2:15 pm 14:15 Cloudy 37 2.7 34 1 89 89 NW 10 17 30.21 1023 10 16 0.00 0.00
2:35 pm 14:35 Cloudy 38 3.1 34 1 86 86 NNW 12 19 30.21 1023 10 16 0.00 0.00
2:55 pm 14:55 Cloudy 38 3.1 33 0.8 85 85 NNW 9 15 30.21 1023 10 16 0.00 0.00
3:15 pm 15:15 Cloudy 38 3.2 34 1 86 86 N 8 13 30.21 1023 10 16 0.00 0.00
3:35 pm 15:35 Cloudy 38 3.3 34 1.2 86 86 N 8 13 30.21 1023 10 16 0.00 0.00
3:55 pm 15:55 Cloudy 38 3.5 35 1.5 87 87 N 7 11 30.21 1023 10 16 0.00 0.00
4:15 pm 16:15 Partly Cloudy 39 3.7 34 1.2 84 84 N 5 7 30.24 1024 10 16 0.00 0.00
4:35 pm 16:35 Sunny 38 3.5 35 1.4 86 86 N 7 11 30.24 1024 10 16 0.00 0.00
4:55 pm 16:55 Mostly Cloudy 38 3.2 35 1.5 89 89 N 5 7 30.27 1025 10 16 0.00 0.00
5:15 pm 17:15 Cloudy 38 3.3 35 1.5 88 88 N 5 7 30.27 1025 10 16 0.00 0.00
5:35 pm 17:35 Mostly Cloudy 36 2.1 33 0.5 89 89 N 5 7 30.27 1025 10 16 0.00 0.00
5:55 pm 17:55 Partly Cloudy 35 1.5 33 0.4 92 92 N 5 7 30.33 1027 10 16 0.00 0.00
6:15 pm 18:15 Clear 35 1.6 33 0.6 93 93 NNW 9 15 30.30 1026 10 16 0.00 0.00
6:35 pm 18:35 Clear 35 1.6 32 0 89 89 N 10 17 30.30 1026 10 16 0.00 0.00
6:55 pm 18:55 Clear 33 0.8 31 -0.6 90 90 N 5 7 30.36 1028 10 16 0.00 0.00
7:15 pm 19:15 Clear 33 0.5 31 -0.6 92 92 NNW 3 6 30.39 1029 10 16 0.00 0.00
7:35 pm 19:35 Clear 32 0 30 -1.2 92 92 NW 3 6 30.39 1029 10 16 0.00 0.00
7:55 pm 19:55 Clear 30 -1 28 -2 93 93 NW 3 6 30.42 1030 10 16 0.00 0.00
8:15 pm 20:15 Clear 29 -1.6 28 -2.4 94 94 Calm 30.42 1030 10 16 0.00 0.00
8:35 pm 20:35 Clear 29 -1.5 28 -2.2 95 95 NW 3 6 30.45 1031 10 16 0.00 0.00
8:55 pm 20:55 Clear 29 -1.5 28 -2.2 95 95 WNW 5 7 30.45 1031 10 16 0.00 0.00
9:15 pm 21:15 Clear 29 -1.6 28 -2.2 96 96 NW 6 9 30.45 1031 10 16 0.00 0.00
9:35 pm 21:35 Clear 30 -1.1 29 -1.8 95 95 NW 6 9 30.45 1031 10 16 0.00 0.00
9:55 pm 21:55 Clear 30 -1.3 28 -2.1 94 94 WNW 3 6 30.45 1031 10 16 0.00 0.00
10:15 pm 22:15 Clear 28 -2 27 -2.6 96 96 Calm 30.45 1031 10 16 0.00 0.00
10:35 pm 22:35 Clear 29 -1.6 28 -2.4 94 94 W 6 9 30.45 1031 10 16 0.00 0.00
10:55 pm 22:55 Clear 29 -1.8 27 -2.6 94 94 W 7 11 30.48 1032 10 16 0.00 0.00
11:15 pm 23:15 Clear 28 -2.1 27 -2.8 95 95 WSW 5 7 30.48 1032 10 16 0.00 0.00
11:35 pm 23:35 Clear 29 -1.8 27 -2.6 94 94 W 6 9 30.48 1032 10 16 0.00 0.00
11:55 pm 23:55 Clear 29 -1.4 28 -2.1 95 95 W 6 9 30.48 1032 10 16 0.00 0.00

Powered by AerisWeather